This is the latest recevied weather packets stored in our database for station/object KJ7BRE-1. If no packets are shown the sender has not sent any weather packets the latest 10 day(s).
| Time | Temp. | Humidity | Pressure | Rain* | Wind** | Luminosity | Snow |
|---|---|---|---|---|---|---|---|
| 1787592266 | 23.33° C | 59% | 1012.9 hPa | 0 mm | - | - | - |
| 1787591965 | 22.78° C | 60% | 1013.2 hPa | 0 mm | - | - | - |
| 1787591664 | 22.78° C | 61% | 1012.9 hPa | 0 mm | - | - | - |
| 1787591362 | 22.22° C | 63% | 1013.2 hPa | 0 mm | - | - | - |
| 1787591061 | 22.78° C | 61% | 1013.2 hPa | 0 mm | - | - | - |
| 1787590760 | 22.22° C | 62% | 1013.2 hPa | 0 mm | - | - | - |
| 1787590459 | 22.22° C | 63% | 1013.2 hPa | 0 mm | - | - | - |
| 1787590158 | 21.67° C | 64% | 1013.5 hPa | 0 mm | - | - | - |
| 1787589856 | 21.67° C | 64% | 1013.2 hPa | 0 mm | - | - | - |
| 1787589555 | 21.67° C | 65% | 1013.2 hPa | 0 mm | - | - | - |
| 1787589254 | 21.11° C | 67% | 1013.2 hPa | 0 mm | - | - | - |
| 1787588953 | 21.11° C | 68% | 1013.5 hPa | 0 mm | - | - | - |
| 1787588651 | 20.56° C | 69% | 1013.5 hPa | 0 mm | - | - | - |
| 1787588350 | 20.56° C | 69% | 1013.5 hPa | 0 mm | - | - | - |
| 1787588049 | 20.56° C | 69% | 1013.5 hPa | 0 mm | - | - | - |
| 1787587747 | 20.56° C | 69% | 1013.5 hPa | 0 mm | - | - | - |
| 1787587446 | 20.56° C | 71% | 1013.5 hPa | 0 mm | - | - | - |
| 1787587145 | 20° C | 70% | 1013.9 hPa | 0 mm | - | - | - |
| 1787586844 | 20° C | 70% | 1013.5 hPa | 0 mm | - | - | - |
| 1787586543 | 20° C | 71% | 1013.9 hPa | 0 mm | - | - | - |
| 1787586241 | 19.44° C | 73% | 1013.9 hPa | 0 mm | - | - | - |
| 1787585940 | 19.44° C | 73% | 1013.9 hPa | 0 mm | - | - | - |
| 1787585639 | 19.44° C | 72% | 1014.2 hPa | 0 mm | - | - | - |
| 1787585338 | 18.89° C | 74% | 1014.2 hPa | 0 mm | - | - | - |
| 1787585035 | 18.89° C | 75% | 1014.2 hPa | 0 mm | - | - | - |
* Rain latest hour (hover to see other rain measurements)
** Current wind speed in m/s (hover to see current wind gust speed)